Home > Weather > Nuremberg > Past weeks

Flag for Germany Weather for the Past 2 Weeks in Nuremberg, Bavaria, Germany

Now
54 °F

Sunny.


Feels Like: 51 °F
Forecast: 37 / 65 °F
Wind: 8 mph from North

Location: Nuernberg

Current Time: May 4, 2016 at 2:29:39 PM

Latest Report: May 4, 2016 at 1:20 PM


Visibility: 10 mi

Pressure: 30.33 "Hg

Humidity: 35%

Dew Point: 27 °F

Location of NurembergLocation

Historic Weather in Nuremberg — Graph

°F

Nuremberg Temperature Yesterday

Maximum temperature yesterday: 63 °F (at 1:20 PM)
Minimum temperature yesterday: 37 °F (at 5:50 AM)
Average temperature yesterday: 51 °F

High & Low Weather Summary for the Past Weeks

 TemperatureHumidityPressure
High66 °F (Apr 21, 3:50 PM)100% (Apr 20, 6:20 AM)30.42 "Hg (Apr 20, 6:20 AM)
Low28 °F (Apr 29, 5:20 AM)22% (Apr 21, 4:20 PM)29.50 "Hg (Apr 26, 6:50 AM)
Average46 °F65%30.00 "Hg
* Reported Apr 19 1:20 PM — May 4 1:20 PM, Nuremberg, Weather by CustomWeather, © 2016

Note: Actual official high and low records may vary slightly from our data, if they occured in-between our weather recording intervals... More about our weather records

Advertising

Nuremberg Weather History for the Previous 24 Hours

Scroll right to see more
 ConditionsComfort  
Time TempWeatherWind HumidityBarometerVisibility
1:20 PM
Wed, May 4
54 °FSunny.8 mph35%30.33 "Hg10 mi
12:50 PM54 °FSunny.6 mph33%30.33 "Hg10 mi
12:20 PM54 °FSunny.8 mph33%30.33 "Hg10 mi
11:50 AM52 °FSunny.5 mph44%30.33 "Hg10 mi
11:20 AM52 °FPassing clouds.8 mph38%30.33 "HgN/A
10:50 AM52 °FPassing clouds.8 mph44%30.33 "HgN/A
9:50 AM48 °FPassing clouds.5 mph58%30.33 "HgN/A
9:20 AM46 °FPassing clouds.5 mph57%30.33 "HgN/A
8:20 AM46 °FPassing clouds.7 mph71%30.33 "HgN/A
7:50 AM45 °FPassing clouds.7 mph76%30.33 "HgN/A
7:20 AM43 °FPassing clouds.3 mph81%30.33 "HgN/A
6:20 AM41 °FClear.2 mph87%30.30 "Hg10 mi
5:50 AM41 °FClear.2 mph87%30.30 "Hg10 mi
5:20 AM43 °FClear.3 mph81%30.30 "Hg10 mi
4:50 AM43 °FClear.6 mph81%30.30 "Hg10 mi
4:20 AM45 °FClear.7 mph81%30.30 "Hg10 mi
3:50 AM46 °FPassing clouds.3 mph76%30.27 "HgN/A
3:20 AM46 °FPassing clouds.3 mph76%30.27 "HgN/A
2:50 AM48 °FPassing clouds.5 mph71%30.27 "HgN/A
2:20 AM48 °FPassing clouds.6 mph71%30.27 "HgN/A
1:50 AM48 °FPassing clouds.6 mph71%30.27 "HgN/A
12:50 AM48 °FPassing clouds.7 mph71%30.24 "HgN/A
12:20 AM48 °FPassing clouds.5 mph71%30.24 "HgN/A
11:50 PM
Tue, May 3
48 °FLight rain. Passing clouds.6 mph71%30.24 "HgN/A
11:20 PM48 °FLight rain. Partly cloudy.6 mph66%30.24 "HgN/A
10:50 PM50 °FPassing clouds.6 mph62%30.24 "HgN/A
10:20 PM50 °FLight rain. Partly cloudy.7 mph62%30.21 "HgN/A
9:50 PM50 °FLight rain. Passing clouds.6 mph62%30.21 "HgN/A
9:20 PM50 °FLight rain. Partly sunny.7 mph62%30.18 "HgN/A
8:50 PM50 °FPartly sunny.8 mph67%30.18 "HgN/A
8:20 PM50 °FBroken clouds.9 mph67%30.15 "HgN/A
7:50 PM50 °FPartly sunny.8 mph71%30.15 "HgN/A
7:20 PM52 °FBroken clouds.9 mph62%30.12 "HgN/A
6:50 PM52 °FPartly sunny.10 mph72%30.12 "HgN/A
6:20 PM52 °FBroken clouds.10 mph72%30.09 "HgN/A
5:50 PM54 °FBroken clouds.18 mph67%30.09 "HgN/A
5:20 PM55 °FPartly sunny.18 mph59%30.09 "HgN/A
4:50 PM55 °FPartly sunny.18 mph59%30.09 "HgN/A
4:20 PM55 °FPartly sunny.20 mph59%30.07 "HgN/A
3:50 PM59 °FPartly sunny.21 mph55%30.07 "HgN/A
3:20 PM63 °FPassing clouds.16 mph45%30.04 "HgN/A
2:50 PM63 °FPassing clouds.15 mph42%30.04 "HgN/A
2:20 PM63 °FBroken clouds.12 mph45%30.04 "HgN/A
Weather by CustomWeather, © 2016

See weather overviewHow to use our weather pages